[[{"header":{"parameterUnit":"m.s-1","parameterCategory":1,"la1":30.2991,"la2":30.254,"lo1":-89.0895,"lo2":-89.0444,"dy":0.0017,"dx":0.0017,"nx":28,"ny":28,"refTime":"2023-09-25T21:00:00:Z","depth":0,"parameterNumber":2,"parameterNumberName":"U-component_of_WINDS"},"data":[0,0,0,0,0,0,0,0,0,0,0,0,0,0,0,0,0,0,0,0,0,0,0,0,0,0,0,0,0,0,0,0,0,0,0,0,0,0,0,0,0,0,0,0,0,0,0,0,0,0,0,0,0,0,0,0,0,0,-3.9951,-3.9951,0,-3.9958,-3.9958,-3.9959,-3.9849,-3.9846,-3.9843,-3.984,-3.985,-3.9853,-3.9856,0,0,0,0,0,0,0,0,0,0,0,0,0,-3.9846,-3.9848,-3.9951,-3.9951,-3.9951,-3.9958,-3.9958,-3.9959,-3.9849,-3.9845,-3.9842,-3.9838,-3.9849,-3.9853,-3.9856,0,0,0,0,0,0,0,0,0,0,0,0,0,-3.9876,-3.9849,-3.9951,-3.9897,-3.9893,-3.9958,-3.9958,-3.9959,-3.985,-3.9845,-3.9841,-3.9837,-3.9848,-3.9852,-3.9857,-3.9975,0,0,-3.9871,-3.9873,0,0,0,0,0,0,0,0,-3.9875,-3.988,-3.9905,-3.9901,-3.9896,-3.9898,-3.9925,-3.9964,-3.9851,-3.9866,-3.984,-3.9834,-3.987,-3.9872,-3.9884,-3.9976,-3.9976,-3.9871,-3.9874,-3.9876,-3.9877,0,0,0,0,0,0,0,-3.9873,-3.9879,-3.9954,-3.9906,-3.99,-3.9874,-3.9873,-3.9932,-3.9893,-3.9865,-3.9857,-3.9859,-3.9866,-3.988,-3.9883,-3.9976,-3.9871,-3.9875,-3.9878,-3.988,-4.0167,-4.0172,0,0,0,0,0,0,-3.9877,-3.9878,-3.9954,-3.9954,-3.9874,-3.988,-3.9879,-3.9902,-3.9892,-3.9886,-3.9863,-3.9854,-3.9874,-3.9878,-3.9883,-4.0022,-3.9876,-3.988,-3.9883,-4.0162,-4.0168,-4.0174,0,0,0,0,0,0,-3.9876,-3.9885,-3.9954,-3.9914,-3.9921,-3.9886,-3.9913,-3.9904,-3.9917,-3.9891,-3.9884,-3.9883,-3.987,-3.9877,-3.9953,-4.0021,-3.9882,-3.9887,-4.0157,-4.0164,-4.0171,-4.03,0,0,0,0,0,0,-3.9873,-3.9885,-3.9929,-3.9916,-3.9923,-4.0023,-3.9917,-3.9908,-3.9925,-3.9913,-3.9908,-3.9903,-3.9867,-3.9947,-3.9958,-4.0025,-3.989,-4.015,-4.016,-4.0169,-4.029,-4.0311,-4.0329,0,0,0,0,0,-3.987,-3.9965,-3.9932,-3.9941,-3.9977,-4.0027,-4.0031,-3.9988,-3.9931,-3.9975,-3.9959,-3.9903,-4.0011,-3.9956,-3.9967,-4.0036,-4.0146,-4.0157,-4.0168,-4.0281,-4.0307,-4.0329,0,0,0,0,0,0,-3.9988,-3.9963,-3.9925,-4.0019,-4.0026,-4.0008,-4.0063,-4.0017,-4.0041,-4.0029,-3.9975,-3.9975,-4.0061,-4.0056,-3.9994,-4.0151,-4.0069,-4.0083,-4.0151,-4.0175,-4.0195,-4.0195,-3.9894,0,0,0,0,0,-4.0025,-4.0067,-4.0042,-4.0128,-4.0133,-4.0098,-4.0118,-4.0084,-4.0089,-4.0092,-4.008,-4.0089,-4.0125,-4.015,-4.0181,-4.0288,-4.0287,-4.0342,-4.0361,-4.0378,-4.0391,-4.0449,-4.0473,-4.021,-4.021,-4.0209,0,0,-4.0102,-4.0093,-4.0123,-4.0152,-4.0153,-4.0199,-4.0101,-4.0153,-4.0187,-4.01,-4.0172,-4.0164,-4.017,-4.0263,-4.0303,-4.0261,-4.0463,-4.0392,-4.0405,-4.0409,-4.0463,-4.0488,-4.051,-4.0217,-4.0216,-4.0215,0,0,-4.0266,-4.0263,-4.0334,-4.0338,-4.0341,-4.0316,-4.0334,-4.0324,-4.0315,-4.0386,-4.0322,-4.0362,-4.0425,-4.0432,-4.0443,-4.0611,-4.0562,-4.0623,-4.0727,-4.0784,-4.0805,-4.0823,-4.0884,-4.0907,-4.0636,-4.0636,-4.0636,0,-4.0361,-4.0426,-4.0377,-4.0434,-4.0449,-4.0372,-4.0445,-4.0451,-4.0465,-4.0477,-4.043,-4.0508,-4.0506,-4.0601,-4.0642,-4.0653,-4.0673,-4.0624,-4.0805,-4.0823,-4.084,-4.0897,-4.0921,-4.0644,-4.0643,-4.0642,-4.0641,0,-4.0545,-4.0591,-4.0648,-4.0663,-4.0685,-4.075,-4.0711,-4.0739,-4.0704,-4.0685,-4.076,-4.0755,-4.0785,-4.0804,-4.077,-4.0895,-4.0869,-4.0815,-4.0731,-4.0873,-4.0927,-4.0948,-4.0655,-4.0652,-4.065,-4.0648,0,0,-4.0783,-4.077,-4.0792,-4.0799,-4.0797,-4.0832,-4.0894,-4.0922,-4.0948,-4.0961,-4.1012,-4.1068,-4.1018,-4.1031,-4.0997,-4.1048,-4.1183,-4.0987,-4.0986,-4.1025,-4.1321,-4.1363,-4.1389,-4.1149,-4.1153,-4.1156,-4.1321,0,-4.0943,-4.1047,-4.1005,-4.1113,-4.1156,-4.1084,-4.1138,-4.1144,-4.1129,-4.1164,-4.1147,-4.1187,-4.1118,-4.1126,-4.1172,-4.1157,-4.1242,-4.1144,-4.1198,-4.1201,-4.12,-4.1417,-4.1461,-4.1616,-4.1342,-4.1345,-4.1348,0,-4.1144,-4.1164,-4.1277,-4.1269,-4.1285,-4.1334,-4.1358,-4.1392,-4.1397,-4.1383,-4.1399,-4.1354,-4.1415,-4.1332,-4.1417,-4.1351,-4.1371,-4.1367,-4.1372,-4.1376,-4.1284,-4.1428,-4.1665,-4.1689,-4.138,-4.1377,-4.1375,0,-4.1309,-4.1364,-4.1439,-4.1446,-4.1438,-4.1475,-4.1473,-4.1474,-4.1494,-4.1515,-4.1528,-4.1556,-4.1572,-4.1595,-4.156,-4.1502,-4.1651,-4.1564,-4.1642,-4.1643,-4.1677,-4.1676,-4.1922,-4.1689,-4.1688,-4.1688,-4.1687,0,-4.1493,-4.1565,-4.1513,-4.1559,-4.1638,-4.1589,-4.1669,-4.166,-4.1662,-4.1706,-4.1645,-4.1688,-4.1638,-4.1677,-4.165,-4.1725,-4.1733,-4.1724,-4.1716,-4.173,-4.1731,-4.1743,-4.1731,-4.1694,-4.1692,-4.1691,-4.169,0,-4.169,-4.1658,-4.1735,-4.1721,-4.1719,-4.1778,-4.1767,-4.181,-4.179,-4.1847,-4.1857,-4.1827,-4.1869,-4.1836,-4.1878,-4.186,-4.196,-4.1936,-4.1958,-4.1952,-4.2032,-4.2026,-4.2295,-4.2328,-4.2073,-4.2076,-4.2078,0,-4.181,-4.1864,-4.1856,-4.188,-4.1883,-4.1923,-4.1944,-4.1898,-4.1922,-4.1933,-4.1975,-4.2012,-4.204,-4.2111,-4.2094,-4.2126,-4.2103,-4.2196,-4.2108,-4.2121,-4.2106,-4.2104,-4.211,-4.2214,-4.2217,-4.2219,-4.2221,0,-4.2027,-4.2009,-4.204,-4.2066,-4.2092,-4.2111,-4.2125,-4.2149,-4.2103,-4.2133,-4.2176,-4.2197,-4.224,-4.2278,-4.2304,-4.2304,-4.2256,-4.2249,-4.2269,-4.2284,-4.2295,-4.2292,-4.2008,-4.2243,-4.2241,-4.2239,-4.2238,-4.2237,-4.219,-4.2235,-4.2236,-4.2274,-4.2279,-4.2294,-4.2334,-4.232,-4.2354,-4.2385,-4.2356,-4.2408,-4.2413,-4.2443,-4.2449,-4.2489,-4.2451,-4.248,-4.2487,-4.2495,-4.2507,-4.2288,-4.2494,-4.2493,-4.2492,-4.2492,-4.2491,0,-4.2405,-4.2402,-4.2437,-4.2459,-4.2489,-4.244,-4.2453,-4.2482,-4.2527,-4.2536,-4.2564,-4.2614,-4.2651,-4.2637,-4.267,-4.2705,-4.2684,-4.2715,-4.2713,-4.2714,-4.2539,-4.2519,-4.2732,-4.2732,-4.2732,-4.2732,-4.2732,-4.2732,-4.252,-4.2594,-4.2576,-4.2653,-4.265,-4.2699,-4.2711,-4.2725,-4.2732,-4.279,-4.282,-4.281,-4.281,-4.2843,-4.2875,-4.287,-4.2886,-4.2925,-4.2913,-4.275,-4.2726,-4.2703,-4.2684,-4.2929,-4.2929,-4.3084,-4.3086,-4.3087]},{"header":{"parameterUnit":"m.s-1","parameterCategory":1,"la1":30.2991,"la2":30.254,"lo1":-89.0895,"lo2":-89.0444,"dy":0.0017,"dx":0.0017,"nx":28,"ny":28,"refTime":"2023-09-25T21:00:00:Z","depth":0,"parameterNumber":3,"parameterNumberName":"V-component_of_WINDS"},"data":[0,0,0,0,0,0,0,0,0,0,0,0,0,0,0,0,0,0,0,0,0,0,0,0,0,0,0,0,0,0,0,0,0,0,0,0,0,0,0,0,0,0,0,0,0,0,0,0,0,0,0,0,0,0,0,0,0,0,0.1634,0.1633,0,0.1577,0.1577,0.1576,0.1585,0.1586,0.1587,0.1588,0.1526,0.1523,0.1521,0,0,0,0,0,0,0,0,0,0,0,0,0,0.1746,0.1744,0.1634,0.1633,0.1633,0.1578,0.1577,0.1576,0.1585,0.1586,0.1587,0.1588,0.1527,0.1524,0.152,0,0,0,0,0,0,0,0,0,0,0,0,0,0.1694,0.1744,0.1634,0.163,0.163,0.1578,0.1577,0.1576,0.1584,0.1586,0.1587,0.1589,0.1528,0.1524,0.152,0.1467,0,0,0.1508,0.1507,0,0,0,0,0,0,0,0,0.1697,0.169,0.1632,0.1631,0.163,0.159,0.1594,0.1539,0.1584,0.1601,0.1588,0.1589,0.1546,0.154,0.1526,0.1464,0.1462,0.1508,0.1506,0.1504,0.1503,0,0,0,0,0,0,0,0.1701,0.1693,0.1612,0.1631,0.1629,0.1631,0.1625,0.1583,0.1566,0.16,0.1601,0.1594,0.1545,0.153,0.1525,0.1461,0.1508,0.1505,0.1502,0.1501,0.1351,0.1349,0,0,0,0,0,0,0.1706,0.1696,0.1613,0.161,0.1668,0.1627,0.1621,0.1601,0.1566,0.1563,0.1593,0.1595,0.1536,0.1529,0.1523,0.1457,0.1504,0.15,0.1498,0.1352,0.135,0.1349,0,0,0,0,0,0,0.1708,0.1699,0.1616,0.1653,0.1642,0.1624,0.1601,0.1599,0.1584,0.1561,0.1557,0.1581,0.1537,0.1528,0.1481,0.1455,0.1499,0.1495,0.1354,0.1352,0.1349,0.1326,0,0,0,0,0,0,0.1712,0.1699,0.168,0.1652,0.164,0.1575,0.16,0.1597,0.1578,0.158,0.1549,0.1545,0.1537,0.1487,0.1477,0.145,0.1492,0.1357,0.1353,0.135,0.1328,0.1323,0.1317,0,0,0,0,0,0.1716,0.1675,0.1679,0.1669,0.1616,0.1574,0.1567,0.156,0.1576,0.1555,0.154,0.1546,0.146,0.1482,0.1471,0.1443,0.1358,0.1354,0.1351,0.1331,0.1324,0.1318,0,0,0,0,0,0,0.1698,0.1671,0.1675,0.1625,0.1602,0.1576,0.1549,0.1553,0.1524,0.1527,0.1519,0.1512,0.1463,0.1449,0.1473,0.1389,0.1411,0.1405,0.14,0.1393,0.1387,0.139,0.1489,0,0,0,0,0,0.1689,0.1658,0.1636,0.1593,0.1582,0.1568,0.1549,0.1546,0.1522,0.1512,0.1493,0.1468,0.1435,0.1414,0.1383,0.1328,0.132,0.1303,0.1298,0.1293,0.1287,0.1255,0.1247,0.1336,0.1336,0.1336,0,0,0.1668,0.165,0.163,0.1589,0.1571,0.1538,0.1559,0.1524,0.1499,0.1506,0.1459,0.1446,0.1417,0.1365,0.1341,0.1351,0.1261,0.1288,0.1285,0.1281,0.125,0.1242,0.1234,0.1334,0.1334,0.1334,0,0,0.1613,0.1597,0.1559,0.1541,0.1514,0.1505,0.1496,0.1469,0.1461,0.1415,0.1419,0.1389,0.1333,0.1312,0.1294,0.1233,0.1236,0.1223,0.1193,0.1162,0.1155,0.1148,0.1124,0.1115,0.1218,0.1218,0.1218,0,0.159,0.1542,0.1539,0.1502,0.1483,0.1491,0.1451,0.1433,0.1397,0.1383,0.1396,0.1326,0.1307,0.1249,0.1235,0.1221,0.1209,0.1225,0.1156,0.115,0.1144,0.112,0.1111,0.1216,0.1216,0.1216,0.1217,0,0.1514,0.148,0.1453,0.1418,0.1397,0.1359,0.1349,0.1328,0.1327,0.1317,0.1269,0.1248,0.1211,0.1199,0.1197,0.114,0.1147,0.1159,0.1179,0.1134,0.1111,0.1102,0.1214,0.1214,0.1215,0.1215,0,0,0.1443,0.1409,0.1398,0.1382,0.1354,0.1327,0.129,0.1256,0.1236,0.1212,0.1179,0.1132,0.1142,0.1122,0.1119,0.1092,0.1042,0.1106,0.1105,0.1093,0.0975,0.0965,0.0955,0.1046,0.1044,0.1043,0.0977,0,0.1383,0.1318,0.1314,0.1254,0.1222,0.1229,0.1196,0.1175,0.1164,0.1135,0.1123,0.1089,0.1107,0.1094,0.1068,0.1054,0.1018,0.1059,0.1012,0.101,0.1015,0.0943,0.0932,0.0871,0.0968,0.0967,0.0966,0,0.1303,0.1277,0.1214,0.119,0.1176,0.1147,0.1115,0.1088,0.1063,0.1057,0.1035,0.1036,0.0996,0.1022,0.0966,0.0994,0.0975,0.0965,0.0963,0.0955,0.0983,0.0931,0.0851,0.0841,0.0953,0.0954,0.0955,0,0.1254,0.1204,0.1159,0.1146,0.1117,0.1096,0.1082,0.106,0.1039,0.1012,0.0998,0.0966,0.0947,0.0922,0.0914,0.0934,0.0857,0.0883,0.0849,0.0849,0.0829,0.083,0.0743,0.0823,0.0823,0.0824,0.0824,0,0.1186,0.1146,0.1136,0.1108,0.1064,0.1061,0.1017,0.1005,0.0985,0.0953,0.0959,0.0929,0.0922,0.089,0.0884,0.0837,0.083,0.0822,0.082,0.082,0.082,0.0804,0.0807,0.0821,0.0822,0.0822,0.0823,0,0.1122,0.1114,0.1065,0.1043,0.1036,0.1004,0.0984,0.0957,0.0948,0.0909,0.0899,0.0885,0.0849,0.0839,0.0795,0.0791,0.0735,0.0739,0.0743,0.0742,0.0708,0.071,0.0604,0.0589,0.0683,0.0682,0.0682,0,0.1076,0.1046,0.1021,0.1001,0.0987,0.0955,0.0935,0.0931,0.0909,0.0879,0.0855,0.082,0.0791,0.0732,0.0717,0.0683,0.0684,0.065,0.0679,0.0679,0.068,0.068,0.0676,0.0643,0.0642,0.0641,0.064,0,0.0996,0.0994,0.0965,0.0934,0.091,0.0886,0.0863,0.0846,0.0839,0.0814,0.0778,0.0755,0.0712,0.0675,0.0642,0.0627,0.0631,0.0632,0.0622,0.0619,0.0621,0.0616,0.0724,0.0633,0.0634,0.0634,0.0635,0.0635,0.0937,0.091,0.0888,0.0855,0.0838,0.0816,0.0789,0.0778,0.0748,0.0712,0.0712,0.0672,0.0648,0.0603,0.0587,0.0554,0.0564,0.055,0.0546,0.0542,0.0537,0.063,0.0548,0.0549,0.0549,0.0549,0.0549,0,0.0854,0.0841,0.0811,0.0779,0.0753,0.0763,0.0737,0.0714,0.0679,0.0657,0.0629,0.0587,0.0552,0.0535,0.0501,0.0478,0.0479,0.0468,0.0468,0.0464,0.0532,0.0542,0.0468,0.0468,0.0468,0.0468,0.0468,0.0468,0.0808,0.0762,0.0757,0.0702,0.0689,0.065,0.0635,0.0614,0.0597,0.0549,0.0521,0.0511,0.0491,0.0455,0.0423,0.0419,0.0404,0.0392,0.0389,0.0451,0.0459,0.0467,0.0477,0.039,0.039,0.0323,0.0322,0.0322]}]]